# Tabular Observed and Forecast Hydrograph Information
#
# Location: Salmon River - Somes Bar (SBRC1)
#
# File Generation Time: 09/03/2026 at 07:14 AM PDT
# Data Interval: 1 Hour
#
# Most Recent Date & Time of Maximum Observed: 09/03/2026 at 05:00 AM PDT
# Maximum Observed Stage: 1.87 Feet
# Maximum Observed Flow: 352 cfs
#
# Earliest Date & Time of Maximum Forecast: 09/03/2026 at 07:00 AM PDT
# Maximum Forecast Stage: 1.85 Feet
# Maximum Forecast Flow: 343 cfs
#
# OBSERVED
#
# Date & Time (Local) Stage (Feet) Flow (cfs) Trend Observed Status
# ---------------------------------------------------------------------------------
08/29/2026 07 AM PDT 1.48 192 Normal
08/29/2026 08 AM PDT 1.48 192 0 Normal
08/29/2026 09 AM PDT 1.48 192 0 Normal
08/29/2026 10 AM PDT 1.48 192 0 Normal
08/29/2026 11 AM PDT 1.48 192 0 Normal
08/29/2026 12 PM PDT 1.49 196 + Normal
08/29/2026 01 PM PDT 1.48 192 - Normal
08/29/2026 02 PM PDT 1.48 192 0 Normal
08/29/2026 03 PM PDT 1.49 196 + Normal
08/29/2026 04 PM PDT 1.49 196 0 Normal
08/29/2026 05 PM PDT 1.49 196 0 Normal
08/29/2026 06 PM PDT 1.48 192 - Normal
08/29/2026 07 PM PDT 1.49 196 + Normal
08/29/2026 08 PM PDT 1.49 196 0 Normal
08/29/2026 09 PM PDT 1.49 196 0 Normal
08/29/2026 10 PM PDT 1.49 196 0 Normal
08/29/2026 11 PM PDT 1.49 196 0 Normal
08/30/2026 12 AM PDT 1.49 196 0 Normal
08/30/2026 01 AM PDT 1.49 196 0 Normal
08/30/2026 02 AM PDT 1.49 196 0 Normal
08/30/2026 03 AM PDT 1.49 196 0 Normal
08/30/2026 04 AM PDT 1.49 196 0 Normal
08/30/2026 05 AM PDT 1.49 196 0 Normal
08/30/2026 06 AM PDT 1.49 196 0 Normal
08/30/2026 07 AM PDT 1.49 196 0 Normal
08/30/2026 08 AM PDT 1.49 196 0 Normal
08/30/2026 09 AM PDT 1.49 196 0 Normal
08/30/2026 10 AM PDT 1.49 196 0 Normal
08/30/2026 11 AM PDT 1.49 196 0 Normal
08/30/2026 12 PM PDT 1.50 199 + Normal
08/30/2026 01 PM PDT 1.50 199 0 Normal
08/30/2026 02 PM PDT 1.50 199 0 Normal
08/30/2026 03 PM PDT 1.51 203 + Normal
08/30/2026 04 PM PDT 1.50 199 - Normal
08/30/2026 05 PM PDT 1.50 199 0 Normal
08/30/2026 06 PM PDT 1.50 199 0 Normal
08/30/2026 07 PM PDT 1.50 199 0 Normal
08/30/2026 08 PM PDT 1.50 199 0 Normal
08/30/2026 09 PM PDT 1.50 199 0 Normal
08/30/2026 10 PM PDT 1.50 199 0 Normal
08/30/2026 11 PM PDT 1.50 199 0 Normal
08/31/2026 12 AM PDT 1.51 203 + Normal
08/31/2026 01 AM PDT 1.50 199 - Normal
08/31/2026 02 AM PDT 1.50 199 0 Normal
08/31/2026 03 AM PDT 1.51 203 + Normal
08/31/2026 04 AM PDT 1.51 203 0 Normal
08/31/2026 05 AM PDT 1.51 203 0 Normal
08/31/2026 06 AM PDT 1.51 203 0 Normal
08/31/2026 07 AM PDT 1.51 203 0 Normal
08/31/2026 08 AM PDT 1.51 203 0 Normal
08/31/2026 09 AM PDT 1.50 199 - Normal
08/31/2026 10 AM PDT 1.51 203 + Normal
08/31/2026 11 AM PDT 1.51 203 0 Normal
08/31/2026 12 PM PDT 1.51 203 0 Normal
08/31/2026 01 PM PDT 1.51 203 0 Normal
08/31/2026 02 PM PDT 1.51 203 0 Normal
08/31/2026 03 PM PDT 1.50 199 - Normal
08/31/2026 04 PM PDT 1.51 203 + Normal
08/31/2026 05 PM PDT 1.51 203 0 Normal
08/31/2026 06 PM PDT 1.50 199 - Normal
08/31/2026 07 PM PDT 1.50 199 0 Normal
08/31/2026 08 PM PDT 1.51 203 + Normal
08/31/2026 09 PM PDT 1.48 192 - Normal
08/31/2026 10 PM PDT 1.48 192 0 Normal
08/31/2026 11 PM PDT 1.48 192 0 Normal
09/01/2026 12 AM PDT 1.47 189 - Normal
09/01/2026 01 AM PDT 1.47 189 0 Normal
09/01/2026 02 AM PDT 1.47 189 0 Normal
09/01/2026 03 AM PDT 1.47 189 0 Normal
09/01/2026 04 AM PDT 1.47 189 0 Normal
09/01/2026 05 AM PDT 1.47 189 0 Normal
09/01/2026 06 AM PDT 1.47 189 0 Normal
09/01/2026 07 AM PDT 1.47 189 0 Normal
09/01/2026 08 AM PDT 1.47 189 0 Normal
09/01/2026 09 AM PDT 1.47 189 0 Normal
09/01/2026 10 AM PDT 1.47 189 0 Normal
09/01/2026 11 AM PDT 1.47 189 0 Normal
09/01/2026 12 PM PDT 1.47 189 0 Normal
09/01/2026 01 PM PDT 1.48 192 + Normal
09/01/2026 02 PM PDT 1.48 192 0 Normal
09/01/2026 03 PM PDT 1.48 192 0 Normal
09/01/2026 04 PM PDT 1.48 192 0 Normal
09/01/2026 05 PM PDT 1.48 192 0 Normal
09/01/2026 06 PM PDT 1.48 192 0 Normal
09/01/2026 07 PM PDT 1.48 192 0 Normal
09/01/2026 08 PM PDT 1.48 192 0 Normal
09/01/2026 09 PM PDT 1.48 192 0 Normal
09/01/2026 10 PM PDT 1.48 192 0 Normal
09/01/2026 11 PM PDT 1.48 192 0 Normal
09/02/2026 12 AM PDT 1.48 192 0 Normal
09/02/2026 01 AM PDT 1.48 192 0 Normal
09/02/2026 02 AM PDT 1.48 192 0 Normal
09/02/2026 03 AM PDT 1.48 192 0 Normal
09/02/2026 04 AM PDT 1.48 192 0 Normal
09/02/2026 05 AM PDT 1.48 192 0 Normal
09/02/2026 06 AM PDT 1.48 192 0 Normal
09/02/2026 07 AM PDT 1.48 192 0 Normal
09/02/2026 08 AM PDT 1.48 192 0 Normal
09/02/2026 09 AM PDT 1.48 192 0 Normal
09/02/2026 10 AM PDT 1.49 196 + Normal
09/02/2026 11 AM PDT 1.50 199 + Normal
09/02/2026 12 PM PDT 1.50 199 0 Normal
09/02/2026 01 PM PDT 1.51 203 + Normal
09/02/2026 02 PM PDT 1.53 210 + Normal
09/02/2026 03 PM PDT 1.55 218 + Normal
09/02/2026 04 PM PDT 1.57 225 + Normal
09/02/2026 05 PM PDT 1.60 237 + Normal
09/02/2026 06 PM PDT 1.63 248 + Normal
09/02/2026 07 PM PDT 1.66 261 + Normal
09/02/2026 08 PM PDT 1.69 273 + Normal
09/02/2026 09 PM PDT 1.72 286 + Normal
09/02/2026 10 PM PDT 1.75 299 + Normal
09/02/2026 11 PM PDT 1.77 307 + Normal
09/03/2026 12 AM PDT 1.79 316 + Normal
09/03/2026 01 AM PDT 1.81 325 + Normal
09/03/2026 02 AM PDT 1.82 330 + Normal
09/03/2026 03 AM PDT 1.84 339 + Normal
09/03/2026 04 AM PDT 1.85 343 + Normal
09/03/2026 05 AM PDT 1.87 352 + Normal
09/03/2026 06 AM PDT 1.86 347 - Normal
#
# FORECAST
#
# Date & Time (Local) Stage (Feet) Flow (cfs) Trend Forecast Status
# ---------------------------------------------------------------------------------
09/03/2026 07 AM PDT 1.85 343 Normal
09/03/2026 08 AM PDT 1.83 335 - Normal
09/03/2026 09 AM PDT 1.80 321 - Normal
09/03/2026 10 AM PDT 1.77 307 - Normal
09/03/2026 11 AM PDT 1.74 294 - Normal
09/03/2026 12 PM PDT 1.71 281 - Normal
09/03/2026 01 PM PDT 1.70 277 - Normal
09/03/2026 02 PM PDT 1.68 269 - Normal
09/03/2026 03 PM PDT 1.68 269 0 Normal
09/03/2026 04 PM PDT 1.68 269 0 Normal
09/03/2026 05 PM PDT 1.67 265 - Normal
09/03/2026 06 PM PDT 1.67 265 0 Normal
09/03/2026 07 PM PDT 1.67 265 0 Normal
09/03/2026 08 PM PDT 1.66 261 - Normal
09/03/2026 09 PM PDT 1.65 257 - Normal
09/03/2026 10 PM PDT 1.64 252 - Normal
09/03/2026 11 PM PDT 1.63 248 - Normal
09/04/2026 12 AM PDT 1.62 245 - Normal
09/04/2026 01 AM PDT 1.61 241 - Normal
09/04/2026 02 AM PDT 1.60 237 - Normal
09/04/2026 03 AM PDT 1.59 233 - Normal
09/04/2026 04 AM PDT 1.58 229 - Normal
09/04/2026 05 AM PDT 1.57 225 - Normal
09/04/2026 06 AM PDT 1.56 221 - Normal
09/04/2026 07 AM PDT 1.55 218 - Normal
09/04/2026 08 AM PDT 1.54 214 - Normal
09/04/2026 09 AM PDT 1.53 210 - Normal
09/04/2026 10 AM PDT 1.53 210 0 Normal
09/04/2026 11 AM PDT 1.52 207 - Normal
09/04/2026 12 PM PDT 1.52 207 0 Normal
09/04/2026 01 PM PDT 1.51 203 - Normal
09/04/2026 02 PM PDT 1.51 203 0 Normal
09/04/2026 03 PM PDT 1.51 203 0 Normal
09/04/2026 04 PM PDT 1.50 199 - Normal
09/04/2026 05 PM PDT 1.50 199 0 Normal
09/04/2026 06 PM PDT 1.50 199 0 Normal
09/04/2026 07 PM PDT 1.50 199 0 Normal
09/04/2026 08 PM PDT 1.50 199 0 Normal
09/04/2026 09 PM PDT 1.50 199 0 Normal
09/04/2026 10 PM PDT 1.50 199 0 Normal
09/04/2026 11 PM PDT 1.49 196 - Normal
09/05/2026 12 AM PDT 1.49 196 0 Normal
09/05/2026 01 AM PDT 1.49 196 0 Normal
09/05/2026 02 AM PDT 1.49 196 0 Normal
09/05/2026 03 AM PDT 1.49 196 0 Normal
09/05/2026 04 AM PDT 1.49 196 0 Normal
09/05/2026 05 AM PDT 1.49 196 0 Normal
09/05/2026 06 AM PDT 1.49 196 0 Normal
09/05/2026 07 AM PDT 1.49 196 0 Normal
09/05/2026 08 AM PDT 1.49 196 0 Normal
09/05/2026 09 AM PDT 1.49 196 0 Normal
09/05/2026 10 AM PDT 1.49 196 0 Normal
09/05/2026 11 AM PDT 1.49 196 0 Normal
09/05/2026 12 PM PDT 1.49 196 0 Normal
09/05/2026 01 PM PDT 1.49 196 0 Normal
09/05/2026 02 PM PDT 1.49 196 0 Normal
09/05/2026 03 PM PDT 1.49 196 0 Normal
09/05/2026 04 PM PDT 1.49 196 0 Normal
09/05/2026 05 PM PDT 1.49 196 0 Normal
09/05/2026 06 PM PDT 1.49 196 0 Normal
09/05/2026 07 PM PDT 1.49 196 0 Normal
09/05/2026 08 PM PDT 1.49 196 0 Normal
09/05/2026 09 PM PDT 1.49 196 0 Normal
09/05/2026 10 PM PDT 1.49 196 0 Normal
09/05/2026 11 PM PDT 1.49 196 0 Normal
09/06/2026 12 AM PDT 1.49 196 0 Normal
09/06/2026 01 AM PDT 1.49 196 0 Normal
09/06/2026 02 AM PDT 1.48 192 - Normal
09/06/2026 03 AM PDT 1.48 192 0 Normal
09/06/2026 04 AM PDT 1.48 192 0 Normal
09/06/2026 05 AM PDT 1.48 192 0 Normal
09/06/2026 06 AM PDT 1.48 192 0 Normal
09/06/2026 07 AM PDT 1.48 192 0 Normal
09/06/2026 08 AM PDT 1.48 192 0 Normal
09/06/2026 09 AM PDT 1.48 192 0 Normal
09/06/2026 10 AM PDT 1.48 192 0 Normal
09/06/2026 11 AM PDT 1.48 192 0 Normal
09/06/2026 12 PM PDT 1.49 196 + Normal
09/06/2026 01 PM PDT 1.49 196 0 Normal
09/06/2026 02 PM PDT 1.49 196 0 Normal
09/06/2026 03 PM PDT 1.50 199 + Normal
09/06/2026 04 PM PDT 1.50 199 0 Normal
09/06/2026 05 PM PDT 1.50 199 0 Normal
09/06/2026 06 PM PDT 1.51 203 + Normal
09/06/2026 07 PM PDT 1.51 203 0 Normal
09/06/2026 08 PM PDT 1.51 203 0 Normal
09/06/2026 09 PM PDT 1.52 207 + Normal
09/06/2026 10 PM PDT 1.52 207 0 Normal
09/06/2026 11 PM PDT 1.52 207 0 Normal
09/07/2026 12 AM PDT 1.52 207 0 Normal
09/07/2026 01 AM PDT 1.52 207 0 Normal
09/07/2026 02 AM PDT 1.52 207 0 Normal
09/07/2026 03 AM PDT 1.52 207 0 Normal
09/07/2026 04 AM PDT 1.51 203 - Normal
09/07/2026 05 AM PDT 1.51 203 0 Normal
09/07/2026 06 AM PDT 1.50 199 - Normal
09/07/2026 07 AM PDT 1.50 199 0 Normal
09/07/2026 08 AM PDT 1.50 199 0 Normal
09/07/2026 09 AM PDT 1.50 199 0 Normal
09/07/2026 10 AM PDT 1.49 196 - Normal
09/07/2026 11 AM PDT 1.49 196 0 Normal
09/07/2026 12 PM PDT 1.49 196 0 Normal
09/07/2026 01 PM PDT 1.49 196 0 Normal
09/07/2026 02 PM PDT 1.49 196 0 Normal
09/07/2026 03 PM PDT 1.49 196 0 Normal
09/07/2026 04 PM PDT 1.49 196 0 Normal
09/07/2026 05 PM PDT 1.49 196 0 Normal
09/07/2026 06 PM PDT 1.49 196 0 Normal
09/07/2026 07 PM PDT 1.49 196 0 Normal
09/07/2026 08 PM PDT 1.49 196 0 Normal
09/07/2026 09 PM PDT 1.48 192 - Normal
09/07/2026 10 PM PDT 1.48 192 0 Normal
09/07/2026 11 PM PDT 1.48 192 0 Normal
09/08/2026 12 AM PDT 1.48 192 0 Normal
09/08/2026 01 AM PDT 1.48 192 0 Normal
09/08/2026 02 AM PDT 1.48 192 0 Normal
09/08/2026 03 AM PDT 1.48 192 0 Normal
09/08/2026 04 AM PDT 1.48 192 0 Normal
09/08/2026 05 AM PDT 1.48 192 0 Normal
#
# NOTE 1: Stages are rounded to the nearest hundredth (.01) of a foot.
# NOTE 2: Flows are rounded to the nearest (1) cfs.
# NOTE 3: Trends are determined using hourly change in unrounded stage and flow.
# NOTE 4: Maximum Values are determined using unrounded stage and flow.
|